Simultaneous Nadir Overpasses (SNOs) Predictions

Prediction of SNOs between METOP-A and TERRA Satellite Orbit:

Table of predicted SNOs for the next 14.0 days since TLE Epoch: 7/12/2014
Index Date (METOP-A) Time (METOP-A) Lat,Lon (METOP-A) SZA (METOP-A ) Date (TERRA) Time (TERRA) Lat,Lon (TERRA) SZA (TERRA ) Distance(km) Time Diff (sec)
1 07/14/2014 08:19:43 -81.29, -77.76 117.63 07/14/2014 08:19:51 -81.29, -77.87 117.64 1.94 8
2 07/14/2014 09:10:23 81.29, 89.84 62.41 07/14/2014 09:09:17 81.29, 89.85 62.38 0.56 66
3 07/17/2014 03:03:27 81.28,-179.09 62.76 07/17/2014 03:04:34 81.28,-179.24 62.77 2.44 67
4 07/17/2014 03:54:08 -81.28, -11.73 117.24 07/17/2014 03:54:01 -81.28, -11.65 117.24 1.35 7
5 07/19/2014 22:37:52 81.28,-112.78 63.24 07/19/2014 22:38:44 81.27,-112.88 63.24 1.83 52
6 07/19/2014 23:28:32 -81.28, 55.02 116.71 07/19/2014 23:28:10 -81.29, 55.11 116.70 1.74 22
7 07/22/2014 18:12:17 81.28, -46.52 63.76 07/22/2014 18:12:53 81.28, -46.35 63.79 2.78 36
8 07/22/2014 19:02:57 -81.28, 121.33 116.18 07/22/2014 19:02:20 -81.28, 121.29 116.21 0.90 37
9 07/25/2014 13:46:41 81.28, 20.08 64.36 07/25/2014 13:47:02 81.27, 19.98 64.35 2.09 21




NCC Satellite Simultaneous Nadir Overpasses (SNOs) Prediction Service
